Location: Brahman Valley
(40.6513°N, 111.8855°W)
Time: 22:42:33
(UTC+00:00)

Vanguard 2 - Pass Details

Date: 22 May 2021
Orbit: 552 x 2937 km, 32.9° (Epoch: 14 June)

Event Time Altitude Azimuth Distance (km) Brightness Sun altitude
Rises 10:21:25 0° 233° (SW) 3,178 - -16.3°
Reaches altitude 10° 10:23:37 10° 223° (SW) 2,448 - -16.0°
Exits shadow 10:25:40 22° 208° (SSW) 1,913 9.0 -15.8°
Maximum altitude 10:28:55 37° 157° (SSE) 1,673 9.0 -15.3°
Drops below altitude 10° 10:37:10 10° 95° (E) 3,837 11.7 -14.2°
Sets 10:41:31 0° 89° (E) 5,257 12.6 -13.6°
